Franklin, PA

11:25 PM EST on December 06, 2019 (GMT -0500)
Venango Regional

Weather History for KFKL - October, 2019

Change the Weather History Date:

Sunday, October 27, 2019

  Actual Average Record
Temperature  
Mean Temperature 54 °F -  
Max Temperature 59 °F 57 °F 83 °F (1963)
Min Temperature 46 °F 36 °F 18 °F (1933)
Degree Days  
Heating Degree Days 12    
Growing Degree Days 4 (Base 50)    
Moisture  
Dew Point 50 °F    
Average Humidity 88    
Maximum Humidity 100    
Minimum Humidity 74    
Precipitation  
Precipitation 0.49 in - - ()
Sea Level Pressure  
Sea Level Pressure 29.83 in    
Wind  
Wind Speed 16 mph (SSW)    
Max Wind Speed 23 mph    
Max Gust Speed 38 mph    
Visibility 9 miles    
Events Rain    
Averages and records for this station are not official NWS values.
T = Trace of Precipitation, MM = Missing Value Source: NWS Daily Summary

Daily Weather History Graph

Daily Weather History Graph

Search for Another Location

Airport or City:

Astronomy

Oct. 27, 2019 Rise Set
Actual Time 7:44 AM EDT 6:21 PM EDT
Civil Twilight 7:16 AM EDT 6:49 PM EDT
Nautical Twilight 6:43 AM EDT 7:22 PM EDT
Astronomical Twilight 6:11 AM EDT 7:54 PM EDT
Moon 6:50 AM EDT (10/27) 6:30 PM EDT (10/27)
Length of Visible Light 11h 33m
Length of Day
10h 36m
Waning Crescent, 0% of the Moon is Illuminated
Oct 27
Waning Crescent
Oct 27
New
Nov 4
First Quarter
Nov 12
Full
Nov 19
Last Quarter

Hourly Weather History & Observations

Time (EDT) Temp. Windchill Dew Point Humidity Pressure Visibility Wind Dir Wind Speed Gust Speed Precip Events Conditions
12:07 AM 51.8 °F - 48.2 °F 88% 29.86 in 10.0 mi SE 17.3 mph 26.5 mph 0.00 in Rain Light Rain
12:37 AM 51.8 °F - 48.2 °F 88% 29.85 in 8.0 mi SE 19.6 mph 25.3 mph 0.02 in Rain Rain
12:56 AM 51.1 °F - 48.9 °F 92% 29.84 in 5.0 mi SE 19.6 mph 24.2 mph 0.09 in Rain Heavy Rain
12:59 AM 51.8 °F - 50.0 °F 94% 29.83 in 5.0 mi SE 18.4 mph 26.5 mph 0.01 in Rain Rain
1:56 AM 52.0 °F - 51.1 °F 97% 29.78 in 8.0 mi ESE 18.4 mph 32.2 mph 0.06 in Rain Light Rain
2:56 AM 54.0 °F - 52.0 °F 93% 29.72 in 10.0 mi SE 20.7 mph 38.0 mph 0.02 in Rain Light Rain
3:56 AM 55.0 °F - 53.1 °F 93% 29.70 in 6.0 mi SE 23.0 mph 29.9 mph 0.03 in Rain Light Rain
4:56 AM 55.0 °F - 53.1 °F 93% 29.72 in 7.0 mi SSE 11.5 mph 24.2 mph 0.19 in Rain Rain
5:27 AM 55.4 °F - 53.6 °F 94% 29.72 in 8.0 mi South 12.7 mph - 0.06 in Rain Light Rain
5:56 AM 55.0 °F - 54.0 °F 96% 29.70 in 8.0 mi SSE 12.7 mph - 0.08 in Rain Rain
6:34 AM 55.4 °F - 55.4 °F 100% 29.67 in 10.0 mi South 15.0 mph 20.7 mph 0.01 in Rain Light Rain
6:56 AM 55.9 °F - 55.0 °F 97% 29.68 in 10.0 mi SSE 16.1 mph 23.0 mph 0.01 in   Overcast
7:49 AM 57.2 °F - 55.4 °F 94% 29.67 in 10.0 mi South 13.8 mph - N/A   Overcast
7:56 AM 57.0 °F - 55.9 °F 96% 29.68 in 10.0 mi South 17.3 mph 23.0 mph N/A   Overcast
8:14 AM 57.2 °F - 55.4 °F 94% 29.68 in 10.0 mi SSW 19.6 mph 26.5 mph N/A   Overcast
8:28 AM 59.0 °F - 55.4 °F 88% 29.69 in 10.0 mi SSW 19.6 mph 26.5 mph N/A   Overcast
8:56 AM 59.0 °F - 55.9 °F 90% 29.69 in 10.0 mi SSW 16.1 mph 23.0 mph N/A   Overcast
9:56 AM 59.0 °F - 53.1 °F 81% 29.71 in 10.0 mi SW 13.8 mph 27.6 mph N/A   Overcast
10:56 AM 55.9 °F - 48.9 °F 77% 29.76 in 10.0 mi WSW 17.3 mph 31.1 mph 0.01 in   Overcast
11:56 AM 55.0 °F - 46.9 °F 74% 29.80 in 10.0 mi WSW 21.9 mph 27.6 mph N/A   Overcast
12:56 PM 53.1 °F - 45.0 °F 74% 29.83 in 10.0 mi WSW 17.3 mph 24.2 mph N/A   Overcast
1:56 PM 52.0 °F - 46.0 °F 80% 29.85 in 10.0 mi West 18.4 mph 25.3 mph N/A   Overcast
2:56 PM 51.1 °F - 46.0 °F 83% 29.88 in 10.0 mi West 12.7 mph 24.2 mph N/A   Overcast
3:56 PM 51.1 °F - 46.0 °F 83% 29.91 in 10.0 mi West 15.0 mph 26.5 mph N/A   Overcast
4:56 PM 52.0 °F - 46.0 °F 80% 29.94 in 10.0 mi West 18.4 mph 24.2 mph N/A   Overcast
5:56 PM 51.1 °F - 46.0 °F 83% 29.98 in 10.0 mi West 12.7 mph - N/A   Overcast
6:56 PM 51.1 °F - 46.0 °F 83% 30.00 in 10.0 mi West 8.1 mph - N/A   Overcast
7:56 PM 51.1 °F - 46.0 °F 83% 30.03 in 10.0 mi West 10.4 mph - N/A   Overcast
8:56 PM 50.0 °F - 46.0 °F 86% 30.03 in 10.0 mi West 5.8 mph - N/A   Overcast
9:56 PM 51.1 °F - 46.0 °F 83% 30.06 in 10.0 mi WSW 5.8 mph - N/A   Overcast
10:56 PM 48.9 °F - 45.0 °F 86% 30.07 in 10.0 mi WSW 5.8 mph - N/A   Scattered Clouds
11:56 PM 46.0 °F 44.8 °F 45.0 °F 96% 30.09 in 10.0 mi SW 3.5 mph - N/A   Clear